sat.trackr.live / text

‹ back to catalog

STARLINK-2493

NORAD 48150 · 2021-027BL

PAYLOAD ACTIVE UNKNOWN

§ Identity

Operator
Country
US
Launch date
2021-04-07
Launch site
AFETR
Launch vehicle
Mass (kg)
RCS (m²)

Purposes: comms

External: N2YO · Heavens-Above · Gunter

§ Orbital elements

Epoch: 2026-05-24T11:07:13.262880Z

Period
94.01 min
Inclination
53.1580°
Eccentricity
0.0001089
Mean motion
15.31722951 rev/d
Perigee alt
469.9 km
Apogee alt
471.4 km
Semi-major
6,848.8 km
B*
1.9390e-4
RAAN
160.3362°
Arg perigee
84.8654°
Mean anomaly
275.2471°
Rev number
28,429

§ Raw data

STARLINK-24931 48150U 21027BL  26144.46334795  .00005661  00000+0  19390-3 0  99902 48150  53.1580 160.3362 0001089  84.8654 275.2471 15.31722951284295

JSON: /api/v1/satellites/48150 · /tle

For live sub-satellite position, see the globe view (requires WebGL).

§ Visibility from observer

Set your observer location to see the next 7 days of passes ≥ 10°. The values pass through the URL so the page stays shareable.

No JS? Fill the form by hand. The geolocation button needs JavaScript.